Showing default

ESSA 2 (OT-2), 2091

Orbit data source: Space-Track

ESSA 2 (OT-2), 2091 is a payload satellite owned by ESSA (US) in SSO that was launched on Mon, 28 Feb 1966 UTC via a THOR DELTA E launch vehicle from the Air Force Eastern Test Range (AFETR). Payload-class satellites include a variety of spacecraft equipped with specific instruments for various scientific and technological missions. These include communications satellites like Starlink; space stations such as the ISS; scientific satellites like the Hubble; Earth observation satellites from companies like Planet Labs, Umbra, and HawkEye 360; GPS; miniature CubeSats for education and research; and military/defense satellites.

Loading next visibility...
Identifier
2091, 1966-016A
Orbit
SSO
Country
Flag of USUS
Related business
Manufacturer
RCA/East Windsor
Mission
Non-operational spacecraft
Bus & Motor
TIROS I, Unknown motor
Mass
130 kg wet, 130 kg dry
Launch date (UTC)
1966-02-28 (60 years ago)
Launch vehicle
THOR DELTA E
Launch site
Air Force Eastern Test Range (AFETR)
Object type
Payload
Rocket body
Debris
Shape & HBR
Unknown
Radar Cross Section
Medium (>0.1 m² and <1 m²)

Expand to show TLE details & history
Last TLE update: 14 hours ago

TLE from 14 hours ago
0 ESSA 2 (OT-2)
1  2091U 66016A   26199.69611551 -.00000026  00000-0  89186-4 0  9997
2  2091 101.2291 108.1398 0038633 191.8278 195.5626 12.69431683797627
Epoch: 2026-07-18T16:42Z
TLE epoch observation values (Epoch: 2026-07-18T16:42:24.380Z)
Latitude
26.74404°
Longitude
-84.68018°
Altitude
1,416.163 km
Speed
7.142 km/s
True Right ascension
06h 49m 42s
True Declination
26° 37' 04"
Sunlit
Object was in daylight at epoch
Visualization orbit readout
Latitude
Unknown
Longitude
Unknown
Altitude
Unknown
Speed
Unknown
Apparent Right ascension
Unknown
Apparent Declination
Unknown
Sunlit
N/A
Visualization observer readout
Local Sidereal Time
19:11:42
Azimuth
Unknown
Elevation
Unknown
Doppler factor
Unknown
Orbital elements
Apogee altitude
1,411.726 km
Perigee altitude
1,351.768 km
Semi-major axis
7,759.884 km
Eccentricity
0.00386
Inclination
101.2291°
RAAN
108.1398°
Arg. of periapsis
191.8278°
True anomaly
195.44438°
Mean anomaly
195.5626°
Eccentric anomaly
195.50343°
Mean motion
3.17512 °/min
Orbital period
113.38 mins
BSTAR
0.000089186
Loading maneuver chart data...
Computing Atmospheric mass density...
Loading historical data...
Loading historical data...
Loading historical data...
Loading historical data...
Loading historical data...
Loading historical data...
Loading historical data...
Other satellites on launch #16 in the year 1966 (1966-02-28 UTC)

Documentation

Showing up to 5 results
|